(48) Doris
ephemeris date magn radius delta ra dec elong phase
Opposition1 Jun 202611.83.319 AU2.313 AU16h45m-13°31'171.2°2.7°
Today13 Jun 202611.93.319 AU2.328 AU16h36m-13°10'165.0°4.5°
(48) Doris - 2026-06-13
astro.vanbuitenen.nl


 
-1 year
-1 month
-1 day
Now
+1 day
+1 month
+1 year

The interactive orbit chart above shows the body's path through the solar system and its position at the given date. Green and blue lines are shown perpendicular to the ecliptic plane: Green if the path is above the ecliptic plane, blue if it is below. (Left-click and drag to rotate the view; Right-click and drag to move the view; Use scroll wheel to zoom in our out.)

The orbital elements of Doris are:

            e (Eccentricity)                : 0.0660520
            a (Semimajor axis)              : 3.1135589
            i (Inclination)                 : 6.55721
            Ω (Longitude of ascending node) : 183.42117
            ω (Argument of perihelion)      : 251.45060
            M (Mean anomaly)                : 177.53892
            Epoch                           : 2026 Jun 09

            L (Longitude of perihelion)     : 254.75806
            B (Latitude of perihelion)      : -6.21518
            P (Orbital period in years)     : 5.49            
        

The light curve chart below shows the estimated development of the minor planet's magnitude.


The all-sky chart below shows the path of the minor planet over the same period as the light curve. The current position is marked yellow.





The following chart shows the path of the minor planet in the next few days. The field of view is optimized for (~10x50) binoculars and finderscopes.




Ephemerides:
Date       Time       RA (2000)    DEC (2000)    delta   radius  elong  phase   PA    magn
2026-06-13 00:00 UT   16 36 43.7   -13 10 29     2.328    3.319  165.0    4.5   134   11.9 
2026-06-13 06:34 UT   16 36 31.4   -13 10 05     2.328    3.319  164.8    4.6   133   11.9 
2026-06-14 00:00 UT   16 35 58.9   -13 09 03     2.331    3.319  164.1    4.8   131   12.0 
2026-06-15 00:00 UT   16 35 14.5   -13 07 41     2.334    3.319  163.2    5.1   129   12.0 
2026-06-16 00:00 UT   16 34 30.7   -13 06 24     2.338    3.319  162.2    5.4   127   12.0 
2026-06-17 00:00 UT   16 33 47.4   -13 05 11     2.341    3.319  161.2    5.7   125   12.0 
2026-06-18 00:00 UT   16 33 04.8   -13 04 03     2.345    3.319  160.2    6.0   124   12.0 
2026-06-19 00:00 UT   16 32 22.7   -13 02 59     2.350    3.319  159.2    6.2   123   12.0 
2026-06-20 00:00 UT   16 31 41.4   -13 01 59     2.354    3.319  158.2    6.5   121   12.1 
2026-06-21 00:00 UT   16 31 00.7   -13 01 04     2.359    3.319  157.1    6.8   120   12.1 
2026-06-22 00:00 UT   16 30 20.8   -13 00 14     2.364    3.319  156.1    7.1   119   12.1 
2026-06-23 00:00 UT   16 29 41.7   -12 59 28     2.370    3.319  155.1    7.4   118   12.1 
2026-06-24 00:00 UT   16 29 03.4   -12 58 47     2.375    3.319  154.0    7.7   117   12.1 
2026-06-25 00:00 UT   16 28 25.9   -12 58 11     2.381    3.319  153.0    8.0   116   12.2 
2026-06-26 00:00 UT   16 27 49.3   -12 57 39     2.388    3.319  152.0    8.3   116   12.2 
2026-06-27 00:00 UT   16 27 13.6   -12 57 12     2.394    3.319  150.9    8.6   115   12.2 
2026-06-28 00:00 UT   16 26 38.8   -12 56 50     2.401    3.319  149.9    8.8   114   12.2 
2026-06-29 00:00 UT   16 26 04.9   -12 56 33     2.407    3.319  148.8    9.1   114   12.2 
2026-06-30 00:00 UT   16 25 32.0   -12 56 20     2.414    3.319  147.8    9.4   113   12.2 
2026-07-01 00:00 UT   16 25 00.1   -12 56 12     2.422    3.319  146.8    9.7   113   12.3 
2026-07-02 00:00 UT   16 24 29.2   -12 56 09     2.429    3.319  145.7    9.9   112   12.3 
2026-07-03 00:00 UT   16 23 59.3   -12 56 10     2.437    3.319  144.7   10.2   112   12.3 
2026-07-04 00:00 UT   16 23 30.5   -12 56 17     2.445    3.319  143.7   10.5   111   12.3 
2026-07-05 00:00 UT   16 23 02.7   -12 56 28     2.453    3.319  142.6   10.7   111   12.3 
2026-07-06 00:00 UT   16 22 36.0   -12 56 44     2.462    3.319  141.6   11.0   110   12.3 
2026-07-07 00:00 UT   16 22 10.4   -12 57 04     2.470    3.319  140.6   11.2   110   12.4 
2026-07-08 00:00 UT   16 21 46.0   -12 57 30     2.479    3.319  139.6   11.5   110   12.4 
2026-07-09 00:00 UT   16 21 22.6   -12 57 60     2.488    3.319  138.6   11.7   109   12.4 
2026-07-10 00:00 UT   16 21 00.4   -12 58 35     2.497    3.319  137.5   11.9   109   12.4 
2026-07-11 00:00 UT   16 20 39.4   -12 59 14     2.507    3.319  136.5   12.2   109   12.4 
2026-07-12 00:00 UT   16 20 19.5   -12 59 58     2.516    3.319  135.5   12.4   108   12.4 
2026-07-13 00:00 UT   16 20 00.8   -13 00 47     2.526    3.319  134.5   12.6   108   12.5 


    Terminology:
            
    delta:  distance between minor planet and earth in AU
    radius: distance between minor planet and sun in AU
    magn:   magnitude (brightness) estimate    
    ra:     right ascension in hours (24h = 360deg)
    dec:    declination in degrees
    elong:  elongation in degrees (angle sun-earth-minor planet)    
    phase:  phase angle in degrees (angle sun-minor planet-earth)        
    AU:     Astronomical Unit (mean distance between earth and sun: 149597870.7 km
    

Orbital elements provided by the MPC (Minor Planet Center).
Calculations by a modified version of AAPlus, a C# implementation of the AA+ project by PJ Naughter from the algorithms presented in the book "Astronomical Algorithms" by Jean Meeus.
NGC2000 dso catalog and star labels from VizieR as provided by the Strasbourg astronomical Data Center.
Tycho2 catalog from the ESO archive.